TimeCST,TemperatureF,Dew PointF,Humidity,Sea Level PressureIn,VisibilityMPH,Wind Direction,Wind SpeedMPH,Gust SpeedMPH,PrecipitationIn,Events,Conditions,WindDirDegrees,DateUTC
12:58 AM,47.1,38.1,71,30.15,10.0,SW,6.9,-,N/A,,Clear,230,2013-03-04 06:58:00
1:58 AM,47.7,38.1,70,30.15,10.0,SW,8.1,-,N/A,,Clear,230,2013-03-04 07:58:00
2:58 AM,46.6,39.0,75,30.14,10.0,WSW,3.5,-,N/A,,Clear,250,2013-03-04 08:58:00
3:58 AM,45.9,37.6,73,30.14,10.0,WSW,3.5,-,N/A,,Clear,250,2013-03-04 09:58:00
4:58 AM,43.2,40.3,90,30.14,10.0,Calm,Calm,-,N/A,,Clear,0,2013-03-04 10:58:00
5:58 AM,41.5,39.4,92,30.15,10.0,NNE,2.3,-,N/A,,Clear,30,2013-03-04 11:58:00
6:58 AM,42.1,40.1,93,30.16,10.0,Calm,Calm,-,N/A,,Clear,10,2013-03-04 12:58:00
7:58 AM,54.0,40.3,60,30.16,10.0,South,10.4,-,N/A,,Clear,170,2013-03-04 13:58:00
8:58 AM,57.0,37.9,49,30.18,10.0,South,12.7,-,N/A,,Clear,170,2013-03-04 14:58:00
9:58 AM,58.8,43.0,56,30.17,10.0,South,11.5,-,N/A,,Clear,170,2013-03-04 15:58:00
10:58 AM,60.4,46.8,61,30.17,10.0,South,12.7,-,N/A,,Clear,170,2013-03-04 16:58:00
11:58 AM,62.2,47.7,59,30.15,10.0,SE,11.5,-,N/A,,Clear,140,2013-03-04 17:58:00
12:58 PM,61.9,48.2,61,30.11,10.0,SSE,10.4,17.3,N/A,,Mostly Cloudy,150,2013-03-04 18:58:00
1:58 PM,62.1,49.6,64,30.08,10.0,SE,10.4,-,N/A,,Mostly Cloudy,140,2013-03-04 19:58:00
2:58 PM,61.9,50.9,67,30.06,10.0,SE,10.4,-,N/A,,Overcast,140,2013-03-04 20:58:00
3:58 PM,61.9,51.6,69,30.06,10.0,South,10.4,-,N/A,,Overcast,170,2013-03-04 21:58:00
4:58 PM,61.5,52.7,73,30.05,10.0,South,9.2,-,N/A,,Overcast,180,2013-03-04 22:58:00
5:58 PM,60.4,52.9,76,30.04,10.0,South,11.5,-,N/A,,Overcast,170,2013-03-04 23:58:00
6:58 PM,60.6,53.4,77,30.03,10.0,South,12.7,-,N/A,,Overcast,170,2013-03-05 00:58:00
7:58 PM,60.4,54.0,79,30.01,10.0,South,13.8,19.6,N/A,,Mostly Cloudy,170,2013-03-05 01:58:00
8:58 PM,60.4,54.5,81,30.02,10.0,South,10.4,-,N/A,,Overcast,170,2013-03-05 02:58:00
9:58 PM,60.1,55.0,83,30.01,10.0,South,12.7,-,N/A,,Scattered Clouds,180,2013-03-05 03:58:00
10:58 PM,60.1,55.0,83,30.01,10.0,South,11.5,-,N/A,,Mostly Cloudy,190,2013-03-05 04:58:00
11:58 PM,60.3,55.2,83,29.99,10.0,South,15.0,-,N/A,,Partly Cloudy,190,2013-03-05 05:58:00